Regional Weather Roundup
Issued by NWS Raleigh/Durham, NC

Home | Current Version | Previous Version | Text Only | Print | Product List | Glossary On
Versions: 1 2 3 4 5 6 7 8 9 10 11 12 13 14 15 16 17 18 19 20 21 22 23 24 25 26 27 28
000
ASUS42 KRAH 231310
RWRRAH
NORTH CAROLINA WEATHER ROUNDUP
NATIONAL WEATHER SERVICE RALEIGH NC
800 AM EST MON JAN 23 2017

NOTE: "FAIR" INDICATES FEW OR NO CLOUDS BELOW 12,000 FEET WITH NO
SIGNIFICANT WEATHER AND/OR OBSTRUCTIONS TO VISIBILITY.

NCZ001-053-055-056-065-067-231400-
WESTERN NORTH CAROLINA

CITY           SKY/WX    TMP DP  RH WIND       PRES   REMARKS
ASHEVILLE      LGT RAIN  48  43  82 NW14      29.20R
JEFFERSON      LGT RAIN  43  43  99 NE5       29.22R
HICKORY        CLOUDY    49  49 100 VRB5      29.20R
RUTHERFORDTON  CLOUDY    48  48 100 E3        29.22R
MOUNT AIRY     NOT AVBL
BOONE          DRIZZLE   43  43 100 E3        29.22R
$$

NCZ021-022-025-041-071-084-088-231400-
CENTRAL NORTH CAROLINA

CITY           SKY/WX    TMP DP  RH WIND       PRES   REMARKS
CHARLOTTE      PTCLDY    47  44  90 S7        29.23R
GREENSBORO     LGT RAIN  50  50 100 N5        29.22R VSB 3/4
WINSTON-SALEM  LGT RAIN  49  47  93 NE6       29.23R FOG
RALEIGH-DURHAM CLOUDY    55  53  93 SW15      29.23R
FORT BRAGG     PTCLDY    52  50  93 SW7       29.25S
FAYETTEVILLE   CLEAR     53  49  86 SW9       29.26S
BURLINGTON     CLOUDY    51  51 100 CALM      29.22R
LAURINBURG     CLEAR     49  48  97 S5        29.28S
$$

NCZ011-015-027-028-043-044-047-080-103-231400-
NORTHEASTERN NORTH CAROLINA

CITY           SKY/WX    TMP DP  RH WIND       PRES   REMARKS
ROCKY MT-WILSO CLOUDY    54  54 100 CALM      29.23F FOG
GREENVILLE     CLOUDY    54  54 100 CALM      29.30F FOG
WASHINGTON     CLOUDY    54  54  99 CALM        N/A
ELIZABETH CITY LGT RAIN  59  58  96 SE14      29.27F
MANTEO         CLOUDY    59  59 100 SE7       29.28F
CAPE HATTERAS  PTCLDY    61  57  87 W13G23    29.29R FOG
$$

NCZ078-087-090-091-093-098-101-231400-
SOUTHEASTERN NORTH CAROLINA

CITY           SKY/WX    TMP DP  RH WIND       PRES   REMARKS
LUMBERTON      CLEAR     50  49  96 CALM      29.28S
GOLDSBORO      PTCLDY    55  55 100 SW15G26   29.24R
KINSTON        MOCLDY    55  55 100 SW8       29.27R
KENANSVILLE    CLEAR     52  50  93 SW5       29.28S
NEW BERN       PTCLDY    57  56  96 S8        29.29R
CHERRY POINT   PTCLDY    56  54  93 S7        29.30R
BEAUFORT       CLOUDY    58  53  84 SW16      29.31R
JACKSONVILLE   PTCLDY    56  54  93 SW9       29.29R
WILMINGTON     CLEAR     52  49  89 S5        29.33R
$$





USA.gov is the U.S. government's official web portal to all federal, state and local government web resources and services.